Meath Environmental Platform

Observations for Trim Patrick St

Time AQI Temp °C Hum % Pres Pa CO μg/m³ H₂S μg/m³ NO μg/m³ NO₂ μg/m³ O₃ μg/m³ SO₂ μg/m³ PM1 μg/m³ PM2.5 μg/m³ PM10 μg/m³
Wednesday 5 August 2026
02:10 3 16 74 38,460 0.13 0 2.43 10.82 66.29 0 4.57 9.91 10.9
02:09 2 16 74 38,460 0.12 0 2.41 6.71 41.02 0 4.57 7.76 8.53
02:08 3 16 74 38,460 0.12 0 2.5 8.67 51.74 0 4.57 7.76 8.54
02:07 3 16 74 38,460 0.11 0 2.52 8.81 62.49 0 5.43 8.49 9.33
02:06 3 16 73 38,460 0.1 0 2.59 7.03 49.99 0 2.86 6.37 7
02:05 3 16 74 38,460 0.11 0 2.5 7.04 52.34 0 2 6.36 6.99
02:04 3 16 73 38,460 0.09 0 2.62 7.95 56.66 0 2 5.65 6.22
02:03 3 16 73 38,460 0.1 0 2.58 5.75 45.25 0 2 4.94 5.43
02:02 3 16 74 38,460 0.1 0 2.51 6.29 48.64 0 2 5.64 6.21
02:01 3 16 73 38,460 0.11 0 2.52 6.14 48.8 0 2 5.66 6.22
02:00 3 16 74 38,460 0.1 0 2.53 6.3 46.26 0 2 5.64 6.2
01:59 3 16 74 38,460 0.12 0 2.43 6.69 44.55 0 2 5.63 6.19
01:58 3 16 74 38,460 0.12 0 2.5 6.54 50.36 0 2 6.35 6.99
01:57 3 16 74 38,460 0.1 0 2.49 5.32 45.79 0 3.71 7.04 7.74
01:56 3 16 74 38,460 0.1 0 2.46 6.4 46.17 0 3.71 7.02 7.72
01:55 3 16 74 38,460 0.1 0 2.45 8.42 55.21 0 2.86 7.01 7.71
01:54 3 16 75 38,460 0.09 0 2.5 5.98 42.71 0 3.71 8.42 9.26
01:53 3 16 75 38,460 0.1 0 2.44 8.28 57.1 0 2.86 5.56 6.12
01:52 3 16 75 38,460 0.11 0 2.38 8.77 55.5 0 2.86 6.98 7.67
01:51 3 16 75 38,460 0.12 0 2.38 7.33 49.94 0 3.71 7.71 8.48